• In Lithuania
  • List of Countries
  • For 7 days
  • Water Temperature
  • Satellite Maps
  • Weather Map
  • Weather Widgets
  • user-avatar
    Login

    Hourly Weather Usman

    Today, 23 September, Sunday

    Time Temperature Precipitation Wind Pressure Humidity
    00:00 +21°C° 0 mm 3 mps 761 mmHg 52%
    01:00 +20°C° 0 mm 3 mps 761 mmHg 54%
    02:00 +20°C° 0 mm 3 mps 761 mmHg 57%
    03:00 +19°C° 0 mm 3 mps 761 mmHg 59%
    04:00 +19°C° 0 mm 3 mps 761 mmHg 63%
    05:00 +19°C° 0 mm 3 mps 761 mmHg 66%
    06:00 +18°C° 0 mm 3 mps 761 mmHg 70%
    07:00 +20°C° 0 mm 3 mps 760 mmHg 64%
    08:00 +21°C° 0 mm 3 mps 760 mmHg 58%
    09:00 +23°C° 0 mm 4 mps 760 mmHg 52%
    10:00 +26°C° 0 mm 4 mps 760 mmHg 45%
    11:00 +28°C° 0 mm 4 mps 759 mmHg 37%
    12:00 +30°C° 0 mm 5 mps 759 mmHg 30%
    13:00 +32°C° 0 mm 5 mps 759 mmHg 29%
    14:00 +32°C° 0 mm 6 mps 759 mmHg 29%
    15:00 +32°C° 0 mm 6 mps 758 mmHg 29%
    16:00 +29°C° 0.1 mm 6 mps 758 mmHg 35%
    17:00 +27°C° 0.1 mm 6 mps 758 mmHg 41%
    18:00 +26°C° 0.1 mm 6 mps 759 mmHg 46%
    19:00 +25°C° 0.1 mm 5 mps 759 mmHg 51%
    20:00 +22°C° 0.1 mm 4 mps 759 mmHg 56%
    21:00 +21°C° 0.1 mm 4 mps 760 mmHg 60%
    22:00 +20°C° 0 mm 4 mps 760 mmHg 64%
    23:00 +20°C° 0 mm 4 mps 761 mmHg 68%

    Tomorrow, 24 September, Monday

    Time Temperature Precipitation Wind Pressure Humidity
    00:00 +19°C° 0 mm 5 mps 761 mmHg 72%
    01:00 +18°C° 0 mm 4 mps 761 mmHg 73%
    02:00 +17°C° 0 mm 4 mps 762 mmHg 74%
    03:00 +16°C° 0 mm 3 mps 762 mmHg 74%
    04:00 +14°C° 0 mm 3 mps 762 mmHg 74%
    05:00 +14°C° 0 mm 2 mps 763 mmHg 74%
    06:00 +13°C° 0 mm 2 mps 763 mmHg 74%
    07:00 +14°C° 0 mm 2 mps 763 mmHg 67%
    08:00 +16°C° 0 mm 2 mps 763 mmHg 60%
    09:00 +17°C° 0 mm 2 mps 763 mmHg 53%
    10:00 +18°C° 0 mm 2 mps 763 mmHg 45%
    11:00 +20°C° 0 mm 2 mps 762 mmHg 38%
    12:00 +23°C° 0 mm 2 mps 762 mmHg 31%
    13:00 +24°C° 0 mm 2 mps 761 mmHg 29%
    14:00 +25°C° 0 mm 3 mps 760 mmHg 27%
    15:00 +26°C° 0 mm 3 mps 760 mmHg 25%
    16:00 +25°C° 0 mm 3 mps 759 mmHg 30%
    17:00 +24°C° 0 mm 2 mps 759 mmHg 35%
    18:00 +23°C° 0 mm 2 mps 759 mmHg 41%
    19:00 +23°C° 0 mm 2 mps 758 mmHg 47%
    20:00 +22°C° 0 mm 3 mps 758 mmHg 53%
    21:00 +21°C° 0 mm 3 mps 758 mmHg 59%
    22:00 +21°C° 0 mm 3 mps 757 mmHg 63%
    23:00 +21°C° 0 mm 3 mps 757 mmHg 66%

    Day after tomorrow, 25 September, Tuesday

    Time Temperature Precipitation Wind Pressure Humidity
    00:00 +21°C° 0 mm 4 mps 756 mmHg 70%
    01:00 +21°C° 0 mm 4 mps 756 mmHg 73%
    02:00 +20°C° 0 mm 4 mps 756 mmHg 77%
    03:00 +20°C° 0 mm 4 mps 756 mmHg 80%
    04:00 +20°C° 0 mm 5 mps 756 mmHg 81%
    05:00 +20°C° 0 mm 5 mps 756 mmHg 82%
    06:00 +20°C° 0 mm 5 mps 756 mmHg 83%
    07:00 +19°C° 0.1 mm 5 mps 756 mmHg 80%
    08:00 +17°C° 0.1 mm 5 mps 757 mmHg 76%
    09:00 +16°C° 0.1 mm 6 mps 757 mmHg 72%
    10:00 +16°C° 0.2 mm 5 mps 758 mmHg 69%
    11:00 +16°C° 0.2 mm 5 mps 758 mmHg 67%
    12:00 +15°C° 0.2 mm 5 mps 759 mmHg 64%
    13:00 +16°C° 0 mm 5 mps 759 mmHg 58%
    14:00 +17°C° 0 mm 5 mps 759 mmHg 51%
    15:00 +19°C° 0 mm 4 mps 759 mmHg 44%
    16:00 +18°C° 0.1 mm 4 mps 760 mmHg 46%
    17:00 +18°C° 0.1 mm 4 mps 760 mmHg 48%
    18:00 +17°C° 0.1 mm 4 mps 760 mmHg 50%
    19:00 +17°C° 0.1 mm 4 mps 761 mmHg 49%
    20:00 +17°C° 0.1 mm 4 mps 762 mmHg 49%
    21:00 +17°C° 0.1 mm 4 mps 762 mmHg 49%
    22:00 +15°C° 0 mm 4 mps 762 mmHg 49%
    23:00 +15°C° 0 mm 4 mps 762 mmHg 49%

    26 September, Wednesday

    Time Temperature Precipitation Wind Pressure Humidity
    00:00 +15°C° 0 mm 4 mps 763 mmHg 50%
    01:00 +14°C° 0 mm 3 mps 763 mmHg 53%
    02:00 +13°C° 0 mm 3 mps 763 mmHg 56%
    03:00 +12°C° 0 mm 3 mps 764 mmHg 59%
    04:00 +11°C° 0 mm 3 mps 764 mmHg 62%
    05:00 +10°C° 0 mm 3 mps 765 mmHg 65%
    06:00 +10°C° 0 mm 3 mps 765 mmHg 68%
    07:00 +11°C° 0 mm 3 mps 766 mmHg 61%
    08:00 +12°C° 0 mm 3 mps 766 mmHg 54%
    09:00 +13°C° 0 mm 4 mps 767 mmHg 48%
    10:00 +14°C° 0 mm 4 mps 767 mmHg 44%
    11:00 +15°C° 0 mm 4 mps 767 mmHg 39%
    12:00 +17°C° 0 mm 4 mps 767 mmHg 35%
    13:00 +17°C° 0 mm 4 mps 768 mmHg 34%
    14:00 +18°C° 0 mm 4 mps 768 mmHg 32%
    15:00 +18°C° 0 mm 4 mps 768 mmHg 31%
    16:00 +17°C° 0 mm 4 mps 768 mmHg 32%
    17:00 +16°C° 0 mm 3 mps 768 mmHg 33%
    18:00 +16°C° 0 mm 3 mps 768 mmHg 34%
    19:00 +14°C° 0 mm 3 mps 769 mmHg 36%
    20:00 +13°C° 0 mm 3 mps 769 mmHg 38%
    21:00 +12°C° 0 mm 3 mps 770 mmHg 40%
    22:00 +12°C° 0 mm 3 mps 770 mmHg 42%
    23:00 +12°C° 0 mm 2 mps 770 mmHg 45%

    27 September, Thursday

    Time Temperature Precipitation Wind Pressure Humidity
    00:00 +10°C° 0 mm 2 mps 770 mmHg 47%
    01:00 +10°C° 0 mm 2 mps 770 mmHg 48%
    02:00 +9°C° 0 mm 2 mps 770 mmHg 50%
    03:00 +9°C° 0 mm 2 mps 770 mmHg 51%
    04:00 +9°C° 0 mm 1 mps 770 mmHg 53%
    05:00 +9°C° 0 mm 1 mps 770 mmHg 55%
    06:00 +9°C° 0 mm 1 mps 770 mmHg 56%
    07:00 +10°C° 0 mm 1 mps 770 mmHg 51%
    08:00 +12°C° 0 mm 1 mps 770 mmHg 47%
    09:00 +13°C° 0 mm 1 mps 770 mmHg 42%
    10:00 +15°C° 0 mm 2 mps 770 mmHg 37%
    11:00 +16°C° 0 mm 3 mps 769 mmHg 33%
    12:00 +17°C° 0 mm 3 mps 769 mmHg 29%
    13:00 +18°C° 0 mm 4 mps 768 mmHg 27%
    14:00 +18°C° 0 mm 4 mps 768 mmHg 26%
    15:00 +19°C° 0 mm 4 mps 767 mmHg 25%
    16:00 +18°C° 0 mm 4 mps 767 mmHg 27%
    17:00 +17°C° 0 mm 4 mps 767 mmHg 30%
    18:00 +16°C° 0 mm 3 mps 766 mmHg 33%
    19:00 +14°C° 0 mm 3 mps 767 mmHg 36%
    20:00 +13°C° 0 mm 3 mps 767 mmHg 40%
    21:00 +12°C° 0 mm 3 mps 767 mmHg 43%
    22:00 +12°C° 0 mm 3 mps 766 mmHg 45%
    23:00 +11°C° 0 mm 3 mps 766 mmHg 47%

    28 September, Friday

    Time Temperature Precipitation Wind Pressure Humidity
    00:00 +11°C° 0 mm 3 mps 766 mmHg 49%
    01:00 +11°C° 0 mm 3 mps 766 mmHg 50%
    02:00 +11°C° 0 mm 3 mps 765 mmHg 52%
    03:00 +11°C° 0 mm 3 mps 765 mmHg 53%
    04:00 +10°C° 0 mm 3 mps 765 mmHg 54%
    05:00 +10°C° 0 mm 3 mps 765 mmHg 54%
    06:00 +10°C° 0 mm 3 mps 764 mmHg 55%
    07:00 +12°C° 0 mm 3 mps 764 mmHg 50%
    08:00 +14°C° 0 mm 4 mps 764 mmHg 45%
    09:00 +17°C° 0 mm 4 mps 764 mmHg 40%
    10:00 +18°C° 0 mm 4 mps 764 mmHg 36%
    11:00 +20°C° 0 mm 4 mps 764 mmHg 31%
    12:00 +21°C° 0 mm 5 mps 763 mmHg 27%
    13:00 +22°C° 0 mm 4 mps 763 mmHg 27%
    14:00 +22°C° 0 mm 4 mps 762 mmHg 27%
    15:00 +23°C° 0 mm 4 mps 762 mmHg 27%
    16:00 +22°C° 0 mm 4 mps 761 mmHg 30%
    17:00 +20°C° 0 mm 3 mps 761 mmHg 33%
    18:00 +19°C° 0 mm 3 mps 761 mmHg 36%
    19:00 +18°C° 0 mm 2 mps 761 mmHg 40%
    20:00 +17°C° 0 mm 2 mps 761 mmHg 43%
    21:00 +16°C° 0 mm 2 mps 761 mmHg 47%
    22:00 +16°C° 0 mm 2 mps 761 mmHg 49%
    23:00 +15°C° 0 mm 2 mps 761 mmHg 52%
    Show more